This is the latest recevied weather packets stored in our database for station/object K1AWR. If no packets are shown the sender has not sent any weather packets the latest 10 day(s).
| Time | Temp. | Humidity | Pressure | Rain* | Wind** | Luminosity | Snow |
|---|---|---|---|---|---|---|---|
| 1777913518 | 21.67° C | 33% | 1009.8 hPa | 0 mm | - | 786 W/m² | - |
| 1777913214 | 22.22° C | 32% | 1009.8 hPa | 0 mm | - | 784 W/m² | - |
| 1777912910 | 21.67° C | 30% | 1009.9 hPa | 0 mm | - | 785 W/m² | - |
| 1777912607 | 21.11° C | 30% | 1009.9 hPa | 0 mm | - | 784 W/m² | - |
| 1777912304 | 20.56° C | 31% | 1009.8 hPa | 0 mm | - | 779 W/m² | - |
| 1777911999 | 20.56° C | 31% | 1010 hPa | 0 mm | - | 779 W/m² | - |
| 1777911696 | 21.11° C | 32% | 1010.3 hPa | 0 mm | - | 776 W/m² | - |
| 1777911392 | 21.11° C | 30% | 1010.3 hPa | 0 mm | - | 773 W/m² | - |
| 1777911090 | 21.11° C | 30% | 1010.2 hPa | 0 mm | - | 772 W/m² | - |
| 1777910787 | 20° C | 31% | 1010.4 hPa | 0 mm | - | 747 W/m² | - |
| 1777910484 | 20° C | 33% | 1010.6 hPa | 0 mm | - | 736 W/m² | - |
| 1777910180 | 20° C | 30% | 1010.4 hPa | 0 mm | - | 605 W/m² | - |
| 1777909878 | 20° C | 32% | 1010.5 hPa | 0 mm | - | 591 W/m² | - |
| 1777909574 | 20° C | 37% | 1010.7 hPa | 0 mm | - | 654 W/m² | - |
| 1777909272 | 19.44° C | 36% | 1010.6 hPa | 0 mm | - | 542 W/m² | - |
| 1777908970 | 20° C | 32% | 1010.8 hPa | 0 mm | - | 581 W/m² | - |
| 1777908668 | 20° C | 36% | 1010.9 hPa | 0 mm | - | 127 W/m² | - |
| 1777908364 | 18.89° C | 33% | 1010.8 hPa | 0 mm | - | 458 W/m² | - |
| 1777908060 | 19.44° C | 35% | 1011 hPa | 0 mm | - | 176 W/m² | - |
| 1777907756 | 18.89° C | 37% | 1011 hPa | 0 mm | - | 197 W/m² | - |
| 1777907451 | 18.89° C | 37% | 1011 hPa | 0 mm | - | 239 W/m² | - |
| 1777907148 | 18.89° C | 33% | 1011.2 hPa | 0 mm | - | 318 W/m² | - |
| 1777906846 | 18.89° C | 33% | 1011.1 hPa | 0 mm | - | 243 W/m² | - |
| 1777906543 | 18.33° C | 33% | 1011.3 hPa | 0 mm | - | 203 W/m² | - |
| 1777906238 | 18.89° C | 37% | 1011.2 hPa | 0 mm | - | 221 W/m² | - |
* Rain latest hour (hover to see other rain measurements)
** Current wind speed in m/s (hover to see current wind gust speed)